TimeHST,TemperatureF,Dew PointF,Humidity,Sea Level PressureIn,VisibilityMPH,Wind Direction,Wind SpeedMPH,Gust SpeedMPH,PrecipitationIn,Events,Conditions,WindDirDegrees,DateUTC
12:53 AM,73.0,64.9,76,29.98,10.0,ENE,6.9,-,N/A,,Scattered Clouds,70,2013-06-16 10:53:00
1:53 AM,73.0,64.9,76,29.97,10.0,ENE,9.2,-,N/A,,Scattered Clouds,70,2013-06-16 11:53:00
2:53 AM,73.0,64.9,76,29.95,10.0,ENE,11.5,-,N/A,,Scattered Clouds,60,2013-06-16 12:53:00
3:53 AM,73.0,64.0,73,29.95,10.0,ENE,8.1,-,N/A,,Scattered Clouds,60,2013-06-16 13:53:00
4:53 AM,72.0,64.9,78,29.96,10.0,ENE,10.4,-,N/A,,Scattered Clouds,70,2013-06-16 14:53:00
5:53 AM,72.0,66.0,81,29.97,10.0,ENE,4.6,-,N/A,,Scattered Clouds,70,2013-06-16 15:53:00
6:53 AM,73.9,64.9,73,29.99,10.0,ENE,11.5,-,N/A,,Scattered Clouds,60,2013-06-16 16:53:00
7:53 AM,77.0,63.0,62,30.01,10.0,ENE,13.8,20.7,N/A,,Scattered Clouds,60,2013-06-16 17:53:00
8:53 AM,79.0,63.0,58,30.01,10.0,ENE,15.0,-,N/A,,Scattered Clouds,70,2013-06-16 18:53:00
9:53 AM,81.0,63.0,54,30.00,10.0,ENE,16.1,-,N/A,,Scattered Clouds,60,2013-06-16 19:53:00
10:53 AM,82.0,62.1,51,30.01,10.0,ENE,12.7,-,N/A,,Scattered Clouds,70,2013-06-16 20:53:00
11:53 AM,84.0,63.0,49,30.00,10.0,NE,16.1,25.3,N/A,,Scattered Clouds,50,2013-06-16 21:53:00
12:53 PM,84.0,62.1,47,29.99,10.0,NE,13.8,24.2,N/A,,Scattered Clouds,50,2013-06-16 22:53:00
1:53 PM,82.9,62.1,49,29.98,10.0,ENE,18.4,25.3,N/A,,Scattered Clouds,60,2013-06-16 23:53:00
2:53 PM,84.0,63.0,49,29.97,10.0,East,15.0,23.0,N/A,,Scattered Clouds,80,2013-06-17 00:53:00
3:53 PM,82.9,63.0,51,29.97,10.0,ENE,18.4,25.3,N/A,,Scattered Clouds,70,2013-06-17 01:53:00
4:53 PM,81.0,64.0,56,29.96,10.0,NE,18.4,27.6,N/A,,Scattered Clouds,50,2013-06-17 02:53:00
5:53 PM,80.1,64.0,58,29.97,10.0,ENE,18.4,24.2,N/A,,Scattered Clouds,60,2013-06-17 03:53:00
6:53 PM,77.0,64.0,64,29.99,10.0,NE,16.1,23.0,N/A,,Partly Cloudy,50,2013-06-17 04:53:00
7:53 PM,75.9,64.0,67,30.00,10.0,NE,17.3,25.3,N/A,,Partly Cloudy,50,2013-06-17 05:53:00
8:53 PM,75.9,64.0,67,30.02,10.0,ENE,12.7,-,N/A,,Partly Cloudy,60,2013-06-17 06:53:00
9:53 PM,75.9,64.9,69,30.03,10.0,ENE,15.0,23.0,N/A,,Scattered Clouds,60,2013-06-17 07:53:00
10:53 PM,75.0,64.9,71,30.04,10.0,ENE,12.7,-,N/A,,Scattered Clouds,60,2013-06-17 08:53:00
11:53 PM,75.0,64.0,69,30.03,10.0,ENE,10.4,-,0.00,,Scattered Clouds,70,2013-06-17 09:53:00